Regional Weather Roundup
Issued by NWS

Home | Current Version | Previous Version | Graphics & Text | Print | Product List | Glossary On
Versions: 1 2 3 4 5 6 7 8 9 10 11 12 13 14 15 16 17 18 19 20 21 22 23 24 25 26 27 28 29 30 31 32 33 34 35 36 37 38 39 40 41 42 43 44 45 46 47 48 49 50
000
ASUS43 KLOT 200606
RWRIL

ILLINOIS REGIONAL WEATHER ROUNDUP
NATIONAL WEATHER SERVICE CHICAGO/ROMEOVILLE IL
100 AM CDT SUN APR 20 2014

NOTE: "FAIR" INDICATES FEW OR NO CLOUDS BELOW 12,000 FEET WITH NO
SIGNIFICANT WEATHER AND/OR OBSTRUCTIONS TO VISIBILITY.

* THESE STATIONS ARE NOT UNDER NWS QUALITY CONTROL. THEY ALSO MAY NOT
  REPORT WEATHER SUCH AS PRECIPITATION OR FOG.

ILZ001-002-007-009-015-016-024-200700-
NORTHWEST ILLINOIS

CITY           SKY/WX    TMP DP  RH WIND       PRES   REMARKS
MOLINE         FAIR      55  37  50 S8        30.16S
6HR MIN TEMP:  54; 6HR MAX TEMP:  70;

STERLING*      FAIR      52  37  58 SE7       30.18F
SAVANNA*       FAIR      52  35  51 S7        30.17F
$$

ILZ003-004-008-010-011-017-018-200700-
NORTH CENTRAL ILLINOIS

CITY           SKY/WX    TMP DP  RH WIND       PRES   REMARKS
ROCKFORD       FAIR      50  37  61 S8        30.23S
6HR MIN TEMP:  50; 6HR MAX TEMP:  66;

FREEPORT*      FAIR      52  40  65 SE12      30.20S
ROCHELLE*      FAIR      49  38  65 SE10      30.21F
DE KALB*       FAIR      48  37  65 SE8       30.23S
$$

ILZ005-006-012>014-019>023-200700-
NORTHEAST ILLINOIS

CITY           SKY/WX    TMP DP  RH WIND       PRES   REMARKS
CHICAGO-OHARE  FAIR      50  33  52 SE9       30.23S
6HR MIN TEMP:  50; 6HR MAX TEMP:  60;

CHICAGO-MIDWAY FAIR      55  33  43 SE10      30.24S
6HR MIN TEMP:  52; 6HR MAX TEMP:  59;

AURORA         FAIR      53  37  54 SE15      30.22F
6HR MIN TEMP:  53; 6HR MAX TEMP:  66;

LANSING*       FAIR      51  30  45 SE12      30.26S
WAUKEGAN       FAIR      51  34  52 SE16      30.23S
6HR MIN TEMP:  41; 6HR MAX TEMP:  51;

DUPAGE AIRPORT FAIR      53  37  54 SE10      30.21F
6HR MIN TEMP:  53; 6HR MAX TEMP:  66;

KANKAKEE*      FAIR      50  37  59 E9        30.26R
WHEELING       FAIR      48  36  63 SE3       30.24S
6HR MIN TEMP:  46; 6HR MAX TEMP:  55;

MORRIS*        FAIR      53  34  49 SE9       30.22F
NORTHERLY ISL    N/A     48  39  71 SE8         N/A
$$

LMZ740>746-200700-
SOUTHERN LAKE MICHIGAN

STATION/POSITION SKY/WX   TEMP    WIND        PRES    VSBY  WAVE
                          AIR SEA DIR/SP/G                  HT/PER
                          (F)     (DEG/KT/KT) (MB)    (MI)  (FT/S)
WAUKEGAN HARBOR            44     180/  8/  9 1025.4R
HARRISON CRIB              48     160/ 11/ 14   N/A
BURNHAM HARBOR             48     110/  6/  7   N/A
CALUMET HARBOR             53     130/  4/  6 1024.9S
MICHIGAN CITY              51     110/ 11/ 15   N/A
$$

ILZ025>027-034>036-040-047-049-050-058-095>099-200700-
WEST-CENTRAL ILLINOIS

CITY           SKY/WX    TMP DP  RH WIND       PRES   REMARKS
QUINCY         FAIR      56  42  59 SE7       30.16S
GALESBURG*     FAIR      55  41  58 SE6       30.17S
MACOMB*        FAIR      52  39  62 SE5       30.20S
JACKSONVILLE*  FAIR      56  41  58 SE7       30.19S
PITTSFIELD*    FAIR      58  43  56 SE6       30.18S
$$

ILZ028>032-037-038-041>044-048-051>054-059>061-200700-
CENTRAL ILLINOIS

CITY           SKY/WX    TMP DP  RH WIND       PRES   REMARKS
PONTIAC        FAIR      48  39  71 SE10      30.22F
BLOOMINGTON    FAIR      52  36  54 SE12      30.22F
DECATUR        FAIR      45  38  76 E8        30.22S
PEORIA         FAIR      58  33  39 SE3       30.19S
6HR MIN TEMP:  57; 6HR MAX TEMP:  71;

LACON*         FAIR      53  39  58 SE5       30.19R
LINCOLN*       FAIR      51  38  59 E6        30.19F
SPRINGFIELD    FAIR      56  36  47 SE6       30.20R
6HR MIN TEMP:  55; 6HR MAX TEMP:  71;

TAYLORVILLE    FAIR      54  37  54 E7        30.20S
$$

ILZ033-039-045-046-055>057-062-063-200700-
EAST-CENTRAL ILLINOIS

CITY           SKY/WX    TMP DP  RH WIND       PRES   REMARKS
CHAMPAIGN      FAIR      47  38  71 E9        30.23F
RANTOUL*       FAIR      50  40  68 CALM      30.24F
MATTOON        FAIR      55  38  52 E7        30.22S
PARIS*         FAIR      49  41  74 CALM      30.25S
$$

ILZ079-100>102-200700-
SOUTHWEST ILLINOIS

CITY           SKY/WX    TMP DP  RH WIND       PRES   REMARKS
ALTON          FAIR      56  41  58 E3        30.18F
BELLEVILLE     FAIR      51  46  82 CALM      30.17F
CAHOKIA*       FAIR      58  42  55 SE5       30.17F
SPARTA*        FAIR      54  43  66 SE3       30.19F
$$

ILZ064>066-069>071-074>076-080>082-084>086-088>090-092>094-200700-
SOUTH-CENTRAL ILLINOIS

CITY           SKY/WX    TMP DP  RH WIND       PRES   REMARKS
CARBONDALE     FAIR      50  45  83 CALM      30.18F
6HR MIN TEMP:  50; 6HR MAX TEMP:  69;

CAIRO*         FAIR      56  45  66 CALM      30.18S
MARION         FAIR      52  45  76 CALM      30.19S
MT. VERNON     FAIR      43  34  70 NE3       30.20F
CENTRALIA*       N/A     50  44  79 CALM      30.19F
SALEM*         FAIR      52  46  78 E3        30.20F
METROPOLIS*    FAIR      52  42  68 CALM      30.18S
$$

ILZ067-068-072-073-078-083-087-091-200700-
SOUTHEAST ILLINOIS

CITY           SKY/WX    TMP DP  RH WIND       PRES   REMARKS
FAIRFIELD*     FAIR      54  43  66 CALM      30.21S
HARRISBURG*    FAIR      50  43  78 CALM      30.21S
ROBINSON*      FAIR      51  45  79 CALM      30.23S
CARMI*         FAIR      51  47  86 NW3       30.20S
$$

ABBREVIATIONS USED IN REMARKS
   TC - TEMPERATURE IN CELSIUS
  WCI - WIND CHILL INDEX
   HX - HEAT INDEX
  VSB - VISIBILITY
$$




USA.gov is the U.S. government's official web portal to all federal, state and local government web resources and services.